STARLINK-31650, 59512

Orbit data source: Space-Track

STARLINK-31650, 59512 is a payload satellite owned by SpaceX/Seattle (US) in LEO that was launched on Wed, 17 Apr 2024 UTC via an FALCON 9 launch vehicle from the Air Force Eastern Test Range (AFETR). Payload-class satellites include a variety of spacecraft equipped with specific instruments for various scientific and technological missions. These include communications satellites like Starlink; space stations such as the ISS; scientific satellites like the Hubble; Earth observation satellites from companies like Planet Labs, Umbra, and HawkEye 360; GPS; miniature CubeSats for education and research; and military/defense satellites.

Loading next visibility...
Identifier
59512, 2024-073B
Orbit
LEO
Country
Flag of USUS
Related business
Manufacturer
SpaceX/Seattle
Mission
Operational spacecraft
Bus & Motor
STARLINK V2M, Unknown motor
Mass
730 kg wet, ~700 kg dry
Launch date (UTC)
2024-04-17 (1 year ago)
Launch vehicle
FALCON 9
Launch site
Air Force Eastern Test Range (AFETR)
Object type
Payload
Rocket body
Debris
Shape & HBR
Unknown
Radar Cross Section
Large (>1 m²)

Expand to show TLE details & history
Last TLE update: 2 days ago

TLE from 2 days ago
0 STARLINK-31650
1 59512U 24073B   25259.29843064  .00001993  00000-0  81903-4 0  9994
2 59512  43.0044 222.9845 0001222 269.5855  90.4857 15.27590921 79503
Epoch: 2025-09-16T07:09Z
TLE epoch observation values (Epoch: 2025-09-16T07:09:44.407Z)
Latitude
0.00001°
Longitude
120.05875°
Altitude
482.799 km
Speed
7.626 km/s
True Right ascension
14h 51m 56s
True Declination
0° 00' 00"
Sunlit
Object was in daylight at epoch
Visualization orbit readout
Latitude
Unknown
Longitude
Unknown
Altitude
Unknown
Speed
Unknown
Apparent Right ascension
Unknown
Apparent Declination
Unknown
Sunlit
N/A
Visualization observer readout
Local Sidereal Time
14:34:28
Azimuth
Unknown
Elevation
Unknown
Doppler factor
Unknown
Orbital elements
Apogee altitude
485.8 km
Perigee altitude
484.122 km
Semi-major axis
6,863.098 km
Eccentricity
0.00012
Inclination
43.0044°
RAAN
222.9845°
Arg. of periapsis
269.5855°
True anomaly
90.4997°
Mean anomaly
90.4857°
Eccentric anomaly
90.4927°
Mean motion
3.81736 °/min
Orbital period
94.31 mins
BSTAR
0.000081903
Loading maneuver chart data...
Computing Atmospheric mass density...
Loading historical data...
Loading historical data...
Loading historical data...
Loading historical data...
Loading historical data...
Loading historical data...
Loading historical data...

Documentation

Showing up to 5 results
|